Location: Little Elm
(33.1626°N, 96.9375°W)
Time: 13:51:05
(UTC+00:00)

Cosmos 1515 Rocket - Pass Details

Date: 03 July 2022
Orbit: 604 x 631 km, 82.5° (Epoch: 08 August)

Event Time Altitude Azimuth Distance (km) Brightness Sun altitude
Rises 10:11:45 0° 337° (NNW) 2,888 7.2 -13.3°
Reaches altitude 10° 10:14:21 10° 322° (NW) 1,974 6.2 -12.9°
Maximum altitude 10:17:45 22° 271° (W) 1,327 4.8 -12.3°
Enters shadow 10:19:32 17° 238° (WSW) 1,528 4.9 -12.0°
